Terminal Aerodrome Forecast
Issued by NWS Pocatello, ID

Home | Current Version | Previous Version | Text Only | Print | Product List | Glossary On
Versions: 1 2 3 4 5 6 7 8 9 10 11 12 13 14 15 16 17 18 19 20
828
FTUS45 KPIH 271123
TAFIDA
TAF
KIDA 271123Z 2712/2812 19008KT P6SM SCT080
     FM271500 21012KT P6SM FEW040 BKN080
     FM271800 20018G28KT P6SM VCTS SCT060CB
     FM280200 20012KT P6SM FEW120=

USA.gov is the U.S. government's official web portal to all federal, state and local government web resources and services.